Flag for West Bank Weather past 2 weeks in Tulkarm, West Bank

Now
79 °F

Passing clouds.


Feels Like: 81 °F
Forecast: 74 / 92 °F
Wind: 3 mph from North

Location: Dov Airport

Current Time: Jul 29, 2015 at 8:47:25 AM

Latest Report: Jul 29, 2015 at 7:50 AM


Visibility: N/A

Pressure: 29.71 "Hg

Humidity: 74%

Dew point: 70 °F

Location of TulkarmLocation

Historic Weather in Tulkarm — Graph

°F

Tulkarm temperature yesterday

Maximum temperature yesterday: 86 °F (at 2:50 PM)
Minimum temperature yesterday: 77 °F (at 5:50 AM)
Average temperature yesterday: 82 °F

Past Weeks' High & Low Weather Summary

 TemperatureHumidityPressure
High88 °F (Jul 23, 2:50 PM)89% (Jul 16, 4:50 AM)29.83 "Hg (Jul 16, 4:50 AM)
Low73 °F (Jul 17, 5:50 AM)52% (Jul 23, 2:50 PM)29.65 "Hg (Jul 20, 5:50 AM)
Average82 °F73%29.72 "Hg
* Reported Jul 14 6:50 AM — Jul 29 6:50 AM, Tulkarm, Weather by CustomWeather, © 2015

Note: Actual official high and low records may vary slightly from our data, if they occured in-between our weather recording intervals... More about our weather records

Advertising

Tulkarm weather history for previous 24 hours

 ConditionsComfort  
Time TempWeatherWind HumidityBarometerVisibility
6:50 AM
Wed, Jul 29
75 °FPassing clouds.5 mph78%29.68 "HgN/A
5:50 AM75 °FPassing clouds.3 mph83%29.68 "HgN/A
10:50 PM
Tue, Jul 28
79 °FPassing clouds.3 mph79%29.71 "HgN/A
9:50 PM79 °FClear.5 mph79%29.71 "Hg10 mi
8:50 PM79 °FClear.5 mph79%29.68 "Hg10 mi
7:50 PM81 °FPassing clouds.6 mph74%29.68 "HgN/A
6:50 PM82 °FPassing clouds.8 mph70%29.68 "HgN/A
5:50 PM82 °FPassing clouds.8 mph70%29.68 "HgN/A
4:50 PM84 °FPassing clouds.8 mph66%29.68 "HgN/A
3:50 PM84 °FPassing clouds.9 mph66%29.68 "HgN/A
2:50 PM86 °FPassing clouds.9 mph62%29.68 "HgN/A
1:50 PM84 °FPassing clouds.12 mph66%29.68 "HgN/A
12:50 PM84 °FSunny.10 mph66%29.68 "Hg10 mi
11:50 AM84 °FPassing clouds.9 mph66%29.68 "HgN/A
10:50 AM84 °FPassing clouds.7 mph66%29.71 "HgN/A
9:50 AM82 °FPassing clouds.7 mph70%29.68 "HgN/A
8:50 AM82 °FScattered clouds.6 mph70%29.68 "HgN/A
Weather by CustomWeather, © 2015

See weather overviewHow to use our weather pages